DAL945 KATL-KLAS

Flight info

Callsign DAL945
Flight time N/A
Altitude 40000
Route NASSA2 YAALL J14 LIT MLC PNH GUP HAHAA RKSTR4
Aircraft A359/H-SDE2E3GHIJ3J4J5LM1ORWXY/LB1D1

Departure

Time N/A
Airport Hartsfield Jackson Atlanta International Airport (KATL)

Arrival

Time 2026-05-03 23:43
Airport Harry Reid International Airport (KLAS)
Time Latitude Longitude Altitude Speed Heading
2026-05-03 20:15 33.76577 -87.08062 40181 ft 431 kts 273°
2026-05-03 20:15 33.77085 -87.15236 40154 ft 431 kts 273°
2026-05-03 20:16 33.77589 -87.22419 40177 ft 431 kts 273°
2026-05-03 20:16 33.78088 -87.29600 40179 ft 431 kts 273°
2026-05-03 20:17 33.78583 -87.36775 40180 ft 431 kts 273°
2026-05-03 20:17 33.79073 -87.43941 40177 ft 433 kts 273°
2026-05-03 20:18 33.79965 -87.51126 40173 ft 435 kts 280°
2026-05-03 20:18 33.81405 -87.58206 40171 ft 436 kts 282°
2026-05-03 20:19 33.82921 -87.65273 40165 ft 436 kts 282°
2026-05-03 20:19 33.84416 -87.72351 40165 ft 436 kts 282°
2026-05-03 20:20 33.85881 -87.79403 40165 ft 437 kts 282°
2026-05-03 20:20 33.87347 -87.86518 40163 ft 437 kts 282°
2026-05-03 20:21 33.88808 -87.93623 40163 ft 437 kts 282°
2026-05-03 20:21 33.90265 -88.00736 40162 ft 437 kts 282°
2026-05-03 20:22 33.91707 -88.07800 40164 ft 437 kts 282°
2026-05-03 20:22 33.93160 -88.14935 40163 ft 438 kts 282°
2026-05-03 20:23 33.94605 -88.22054 40173 ft 438 kts 282°
2026-05-03 20:23 33.96047 -88.29180 40170 ft 438 kts 282°
2026-05-03 20:24 33.97485 -88.36309 40173 ft 438 kts 282°
2026-05-03 20:24 33.98920 -88.43446 40166 ft 438 kts 282°
2026-05-03 20:25 34.00350 -88.50582 40170 ft 438 kts 282°
2026-05-03 20:25 34.01777 -88.57724 40172 ft 438 kts 282°
2026-05-03 20:26 34.03201 -88.64877 40181 ft 438 kts 282°
2026-05-03 20:26 34.04613 -88.71989 40182 ft 438 kts 282°
2026-05-03 20:27 34.06028 -88.79140 40177 ft 438 kts 282°
2026-05-03 20:27 34.07438 -88.86290 40169 ft 438 kts 282°
2026-05-03 20:28 34.08843 -88.93437 40175 ft 438 kts 282°
2026-05-03 20:28 34.10245 -89.00594 40173 ft 438 kts 282°
2026-05-03 20:29 34.11643 -89.07752 40176 ft 438 kts 282°
2026-05-03 20:29 34.13029 -89.14870 40164 ft 438 kts 282°
2026-05-03 20:30 34.14419 -89.22036 40169 ft 438 kts 282°
2026-05-03 20:30 34.15804 -89.29204 40161 ft 438 kts 283°
2026-05-03 20:31 34.17184 -89.36362 40172 ft 438 kts 282°
2026-05-03 20:31 34.18554 -89.43495 40167 ft 438 kts 282°
2026-05-03 20:32 34.19927 -89.50666 40166 ft 438 kts 282°
2026-05-03 20:32 34.21293 -89.57828 40166 ft 438 kts 282°
2026-05-03 20:33 34.22656 -89.65002 40162 ft 438 kts 282°
2026-05-03 20:33 34.24015 -89.72172 40150 ft 438 kts 282°
2026-05-03 20:34 34.25372 -89.79359 40149 ft 438 kts 282°
2026-05-03 20:34 34.26715 -89.86494 40147 ft 438 kts 282°
2026-05-03 20:35 34.28061 -89.93673 40146 ft 437 kts 282°
2026-05-03 20:35 34.29404 -90.00858 40147 ft 437 kts 283°
2026-05-03 20:36 34.30738 -90.08020 40149 ft 437 kts 283°
2026-05-03 20:36 34.32069 -90.15198 40146 ft 436 kts 283°
2026-05-03 20:37 34.33393 -90.22362 40153 ft 436 kts 283°
2026-05-03 20:37 34.34714 -90.29526 40155 ft 436 kts 283°
2026-05-03 20:38 34.36030 -90.36694 40150 ft 436 kts 283°
2026-05-03 20:38 34.37332 -90.43814 40141 ft 435 kts 283°
2026-05-03 20:39 34.38636 -90.50966 40137 ft 434 kts 283°
2026-05-03 20:39 34.39936 -90.58120 40137 ft 434 kts 283°
2026-05-03 20:40 34.41232 -90.65278 40150 ft 434 kts 283°
2026-05-03 20:40 34.42521 -90.72421 40153 ft 434 kts 283°
2026-05-03 20:41 34.43807 -90.79580 40139 ft 434 kts 283°
2026-05-03 20:41 34.45078 -90.86674 40146 ft 433 kts 283°
2026-05-03 20:42 34.46358 -90.93819 40142 ft 433 kts 283°
2026-05-03 20:42 34.47629 -91.00964 40150 ft 433 kts 283°
2026-05-03 20:43 34.48894 -91.08110 40140 ft 433 kts 283°
2026-05-03 20:43 34.50151 -91.15232 40140 ft 433 kts 283°
2026-05-03 20:44 34.51407 -91.22368 40146 ft 432 kts 283°
2026-05-03 20:44 34.52656 -91.29490 40140 ft 432 kts 283°
2026-05-03 20:45 34.53904 -91.36624 40142 ft 432 kts 283°
2026-05-03 20:45 34.55143 -91.43750 40139 ft 432 kts 283°
2026-05-03 20:46 34.56378 -91.50886 40136 ft 432 kts 283°
2026-05-03 20:46 34.57601 -91.57976 40139 ft 431 kts 283°
2026-05-03 20:47 34.58825 -91.65095 40136 ft 431 kts 283°
2026-05-03 20:47 34.60046 -91.72221 40138 ft 431 kts 283°
2026-05-03 20:48 34.61263 -91.79349 40138 ft 431 kts 283°
2026-05-03 20:48 34.62472 -91.86460 40124 ft 431 kts 283°
2026-05-03 20:49 34.63680 -91.93592 40113 ft 430 kts 283°
2026-05-03 20:49 34.64874 -92.00665 40120 ft 429 kts 283°
2026-05-03 20:50 34.66070 -92.07775 40118 ft 429 kts 283°
2026-05-03 20:50 34.67059 -92.13678 40118 ft 429 kts 283°
2026-05-03 20:51 34.67941 -92.20862 40120 ft 431 kts 278°
2026-05-03 20:51 34.68513 -92.29324 40101 ft 431 kts 277°
2026-05-03 20:52 34.68873 -92.35365 40119 ft 431 kts 277°
2026-05-03 20:52 34.69302 -92.42615 40102 ft 430 kts 277°
2026-05-03 20:53 34.69735 -92.49866 40099 ft 430 kts 277°
2026-05-03 20:53 34.70168 -92.57121 40102 ft 430 kts 277°
2026-05-03 20:54 34.70597 -92.64382 40103 ft 430 kts 277°
2026-05-03 20:54 34.71227 -92.75193 40094 ft 428 kts 277°
2026-05-03 20:55 34.71642 -92.82422 40094 ft 427 kts 277°
2026-05-03 20:55 34.72052 -92.89624 40098 ft 427 kts 277°
2026-05-03 20:56 34.72459 -92.96847 40098 ft 427 kts 277°
2026-05-03 20:56 34.72861 -93.04052 40098 ft 427 kts 277°
2026-05-03 20:57 34.73256 -93.11213 40094 ft 426 kts 277°
2026-05-03 20:57 34.73646 -93.18400 40094 ft 426 kts 277°
2026-05-03 20:58 34.74034 -93.25589 40081 ft 426 kts 277°
2026-05-03 20:58 34.74419 -93.32784 40075 ft 426 kts 277°
2026-05-03 20:59 34.74798 -93.39965 40062 ft 426 kts 277°
2026-05-03 20:59 34.75171 -93.47103 40061 ft 426 kts 277°
2026-05-03 21:00 34.75482 -93.53128 40066 ft 425 kts 277°
2026-05-03 21:00 34.75908 -93.61480 40067 ft 425 kts 277°
2026-05-03 21:01 34.76270 -93.68663 40065 ft 425 kts 276°
2026-05-03 21:01 34.76626 -93.75805 40065 ft 425 kts 276°
2026-05-03 21:02 34.76980 -93.82994 40053 ft 425 kts 276°
2026-05-03 21:02 34.77328 -93.90171 40066 ft 424 kts 276°
2026-05-03 21:03 34.77673 -93.97351 40062 ft 424 kts 276°
2026-05-03 21:03 34.78013 -94.04516 40063 ft 424 kts 276°
2026-05-03 21:04 34.78348 -94.11641 40070 ft 424 kts 276°
2026-05-03 21:04 34.78680 -94.18812 40065 ft 424 kts 276°
2026-05-03 21:05 34.79008 -94.25988 40061 ft 424 kts 276°
2026-05-03 21:05 34.79332 -94.33155 40061 ft 424 kts 276°
2026-05-03 21:06 34.79650 -94.40318 40056 ft 424 kts 276°
2026-05-03 21:06 34.79962 -94.47436 40052 ft 423 kts 276°
2026-05-03 21:07 34.80272 -94.54589 40051 ft 423 kts 276°
2026-05-03 21:07 34.80578 -94.61752 40048 ft 423 kts 276°
2026-05-03 21:08 34.80880 -94.68901 40058 ft 422 kts 276°
2026-05-03 21:08 34.81177 -94.76053 40052 ft 422 kts 276°
2026-05-03 21:09 34.81470 -94.83148 40056 ft 422 kts 276°
2026-05-03 21:09 34.81758 -94.90293 40054 ft 422 kts 276°
2026-05-03 21:10 34.82042 -94.97443 40039 ft 422 kts 276°
2026-05-03 21:10 34.82321 -95.04577 40050 ft 421 kts 276°
2026-05-03 21:11 34.82596 -95.11697 40049 ft 421 kts 276°
2026-05-03 21:11 34.82866 -95.18774 40048 ft 421 kts 276°
2026-05-03 21:12 34.83133 -95.25891 40042 ft 421 kts 276°
2026-05-03 21:12 34.83396 -95.33009 40048 ft 421 kts 276°
2026-05-03 21:13 34.83654 -95.40129 40042 ft 420 kts 276°
2026-05-03 21:13 34.83907 -95.47243 40044 ft 419 kts 276°
2026-05-03 21:14 34.84155 -95.54305 40045 ft 420 kts 276°
2026-05-03 21:14 34.84401 -95.61396 40035 ft 420 kts 276°
2026-05-03 21:15 34.84642 -95.68496 40048 ft 419 kts 276°
2026-05-03 21:15 34.84878 -95.75595 40042 ft 418 kts 276°
2026-05-03 21:16 34.85197 -95.82645 40043 ft 415 kts 278°
2026-05-03 21:16 34.85867 -95.89628 40048 ft 416 kts 279°
2026-05-03 21:17 34.86460 -95.95446 40033 ft 417 kts 279°
2026-05-03 21:17 34.87224 -96.03618 40047 ft 417 kts 279°
2026-05-03 21:18 34.87841 -96.10647 40032 ft 416 kts 279°
2026-05-03 21:18 34.88443 -96.17641 40036 ft 414 kts 279°
2026-05-03 21:19 34.89037 -96.24561 40033 ft 413 kts 279°
2026-05-03 21:19 34.89635 -96.31535 40029 ft 413 kts 279°
2026-05-03 21:20 34.90228 -96.38498 40031 ft 413 kts 279°
2026-05-03 21:20 34.90816 -96.45457 40031 ft 413 kts 279°
2026-05-03 21:21 34.91400 -96.52417 40031 ft 411 kts 279°
2026-05-03 21:21 34.91977 -96.59345 40049 ft 410 kts 279°
2026-05-03 21:22 34.92550 -96.66270 40052 ft 410 kts 279°
2026-05-03 21:22 34.93115 -96.73141 40053 ft 410 kts 279°
2026-05-03 21:23 34.93680 -96.80070 40050 ft 410 kts 279°
2026-05-03 21:23 34.94241 -96.86986 40040 ft 409 kts 278°
2026-05-03 21:24 34.94792 -96.93842 40036 ft 407 kts 278°
2026-05-03 21:24 34.95340 -97.00708 40038 ft 407 kts 278°
2026-05-03 21:25 34.95886 -97.07592 40045 ft 407 kts 278°
2026-05-03 21:25 34.96425 -97.14426 40052 ft 407 kts 278°
2026-05-03 21:26 34.96962 -97.21301 40050 ft 407 kts 278°
2026-05-03 21:26 34.97494 -97.28169 40051 ft 406 kts 278°
2026-05-03 21:27 34.98023 -97.35036 40042 ft 407 kts 278°
2026-05-03 21:27 34.98546 -97.41867 40038 ft 407 kts 278°
2026-05-03 21:28 34.99067 -97.48734 40025 ft 407 kts 278°
2026-05-03 21:28 34.99584 -97.55615 40024 ft 406 kts 278°
2026-05-03 21:29 35.00097 -97.62476 40020 ft 405 kts 278°
2026-05-03 21:29 35.00600 -97.69267 40042 ft 403 kts 278°
2026-05-03 21:30 35.01104 -97.76103 40013 ft 405 kts 278°
2026-05-03 21:30 35.01604 -97.82954 40018 ft 406 kts 278°
2026-05-03 21:31 35.02100 -97.89817 40003 ft 406 kts 278°
2026-05-03 21:31 35.02594 -97.96679 40007 ft 406 kts 278°
2026-05-03 21:32 35.03080 -98.03491 40005 ft 403 kts 278°
2026-05-03 21:32 35.03561 -98.10303 40003 ft 402 kts 278°
2026-05-03 21:33 35.04039 -98.17115 39987 ft 402 kts 278°
2026-05-03 21:33 35.04513 -98.23917 39980 ft 402 kts 278°
2026-05-03 21:34 35.04981 -98.30687 39979 ft 402 kts 278°
2026-05-03 21:34 35.05447 -98.37495 39978 ft 401 kts 278°
2026-05-03 21:35 35.05907 -98.44275 39987 ft 400 kts 277°
2026-05-03 21:35 35.06364 -98.51048 39993 ft 399 kts 277°
2026-05-03 21:36 35.06812 -98.57762 39993 ft 399 kts 277°
2026-05-03 21:36 35.07259 -98.64521 39986 ft 399 kts 277°
2026-05-03 21:37 35.07703 -98.71288 40002 ft 399 kts 277°
2026-05-03 21:37 35.08068 -98.76897 40005 ft 398 kts 277°
2026-05-03 21:38 35.08503 -98.83626 40012 ft 397 kts 277°
2026-05-03 21:38 35.08935 -98.90357 40017 ft 397 kts 277°
2026-05-03 21:39 35.09362 -98.97088 40023 ft 397 kts 277°
2026-05-03 21:39 35.09784 -99.03787 40025 ft 397 kts 277°
2026-05-03 21:40 35.10204 -99.10514 40008 ft 397 kts 277°
2026-05-03 21:40 35.10618 -99.17222 40016 ft 395 kts 277°
2026-05-03 21:41 35.11029 -99.23924 40011 ft 395 kts 277°
2026-05-03 21:41 35.11436 -99.30618 39999 ft 395 kts 277°
2026-05-03 21:42 35.11839 -99.37308 39989 ft 395 kts 277°
2026-05-03 21:42 35.12239 -99.44002 39981 ft 401 kts 277°
2026-05-03 21:43 35.12645 -99.50840 39980 ft 406 kts 277°
2026-05-03 21:43 35.13049 -99.57747 39977 ft 409 kts 277°
2026-05-03 21:44 35.13450 -99.64690 39973 ft 409 kts 277°
2026-05-03 21:44 35.13847 -99.71625 39971 ft 410 kts 277°
2026-05-03 21:45 35.14240 -99.78573 39972 ft 409 kts 276°
2026-05-03 21:45 35.14630 -99.85507 39956 ft 408 kts 276°
2026-05-03 21:46 35.15013 -99.92387 39960 ft 408 kts 276°
2026-05-03 21:46 35.15393 -99.99296 39956 ft 407 kts 276°
2026-05-03 21:47 35.15771 -100.06233 39955 ft 407 kts 276°
2026-05-03 21:47 35.16142 -100.13101 39952 ft 407 kts 276°
2026-05-03 21:48 35.16510 -100.20014 39952 ft 407 kts 276°
2026-05-03 21:48 35.16874 -100.26914 39952 ft 406 kts 276°
2026-05-03 21:49 35.17233 -100.33810 39951 ft 406 kts 276°
2026-05-03 21:49 35.17589 -100.40699 39952 ft 406 kts 276°
2026-05-03 21:50 35.17941 -100.47582 39949 ft 406 kts 276°
2026-05-03 21:50 35.18291 -100.54492 39950 ft 406 kts 276°
2026-05-03 21:51 35.18636 -100.61385 39942 ft 406 kts 276°
2026-05-03 21:51 35.18973 -100.68236 39944 ft 406 kts 276°
2026-05-03 21:52 35.19309 -100.75135 39941 ft 406 kts 276°
2026-05-03 21:52 35.19642 -100.82039 39941 ft 406 kts 276°
2026-05-03 21:53 35.19971 -100.88932 39937 ft 406 kts 276°
2026-05-03 21:53 35.20294 -100.95817 39936 ft 406 kts 276°
2026-05-03 21:54 35.20612 -101.02679 39936 ft 406 kts 276°
2026-05-03 21:54 35.20930 -101.09588 39935 ft 406 kts 276°
2026-05-03 21:55 35.21241 -101.16450 39936 ft 406 kts 276°
2026-05-03 21:55 35.21550 -101.23347 39936 ft 406 kts 276°
2026-05-03 21:56 35.21855 -101.30261 39944 ft 406 kts 276°
2026-05-03 21:56 35.22155 -101.37132 39979 ft 406 kts 275°
2026-05-03 21:57 35.22453 -101.44046 39995 ft 406 kts 275°
2026-05-03 21:57 35.22746 -101.50944 40022 ft 406 kts 275°
2026-05-03 21:58 35.23033 -101.57798 40047 ft 406 kts 275°
2026-05-03 21:58 35.23320 -101.64744 40054 ft 406 kts 275°
2026-05-03 21:59 35.23603 -101.71606 40053 ft 406 kts 275°
2026-05-03 21:59 35.24013 -101.78501 40055 ft 406 kts 277°
2026-05-03 22:00 35.24480 -101.85395 40039 ft 406 kts 277°
2026-05-03 22:00 35.24924 -101.92245 40015 ft 406 kts 276°
2026-05-03 22:01 35.25349 -101.99129 39990 ft 406 kts 276°
2026-05-03 22:01 35.25765 -102.06018 39942 ft 406 kts 276°
2026-05-03 22:02 35.26178 -102.12927 39937 ft 406 kts 276°
2026-05-03 22:02 35.26589 -102.19827 39930 ft 407 kts 276°
2026-05-03 22:03 35.26994 -102.26707 39928 ft 407 kts 276°
2026-05-03 22:03 35.27397 -102.33624 39931 ft 407 kts 276°
2026-05-03 22:04 35.27794 -102.40499 39939 ft 407 kts 276°
2026-05-03 22:04 35.28189 -102.47417 39933 ft 407 kts 276°
2026-05-03 22:05 35.28580 -102.54327 39939 ft 407 kts 276°
2026-05-03 22:05 35.28968 -102.61250 39937 ft 407 kts 276°
2026-05-03 22:06 35.29352 -102.68172 39928 ft 407 kts 276°
2026-05-03 22:06 35.29729 -102.75056 39929 ft 407 kts 276°
2026-05-03 22:07 35.30105 -102.81986 39918 ft 408 kts 275°
2026-05-03 22:07 35.30477 -102.88918 39923 ft 408 kts 275°
2026-05-03 22:08 35.30846 -102.95865 39920 ft 408 kts 275°
2026-05-03 22:08 35.31209 -103.02755 39920 ft 408 kts 275°
2026-05-03 22:09 35.31569 -103.09692 39914 ft 408 kts 275°
2026-05-03 22:10 35.32104 -103.20103 39916 ft 408 kts 275°
2026-05-03 22:10 35.32454 -103.27037 39920 ft 407 kts 275°
2026-05-03 22:11 35.32799 -103.33958 39935 ft 407 kts 275°
2026-05-03 22:11 35.33142 -103.40898 39949 ft 407 kts 275°
2026-05-03 22:12 35.33478 -103.47783 39964 ft 407 kts 275°
2026-05-03 22:12 35.33813 -103.54706 39975 ft 407 kts 275°
2026-05-03 22:13 35.34142 -103.61631 39975 ft 407 kts 275°
2026-05-03 22:13 35.34469 -103.68563 39961 ft 407 kts 275°
2026-05-03 22:14 35.34792 -103.75494 39949 ft 407 kts 275°
2026-05-03 22:14 35.35109 -103.82381 39939 ft 407 kts 275°
2026-05-03 22:15 35.35424 -103.89311 39924 ft 407 kts 274°
2026-05-03 22:15 35.35734 -103.96231 39895 ft 407 kts 274°
2026-05-03 22:16 35.36039 -104.03164 39888 ft 406 kts 274°
2026-05-03 22:16 35.36341 -104.10078 39879 ft 407 kts 274°
2026-05-03 22:17 35.36639 -104.16990 39874 ft 407 kts 274°
2026-05-03 22:17 35.36934 -104.23919 39878 ft 407 kts 274°
2026-05-03 22:18 35.37222 -104.30794 39877 ft 406 kts 274°
2026-05-03 22:18 35.37507 -104.37694 39877 ft 405 kts 274°
2026-05-03 22:19 35.37788 -104.44603 39885 ft 406 kts 274°
2026-05-03 22:19 35.38065 -104.51489 39881 ft 407 kts 274°
2026-05-03 22:20 35.38342 -104.58432 39882 ft 407 kts 274°
2026-05-03 22:20 35.38613 -104.65368 39886 ft 407 kts 274°
2026-05-03 22:21 35.38836 -104.71143 39891 ft 407 kts 274°
2026-05-03 22:21 35.39099 -104.78096 39874 ft 407 kts 274°
2026-05-03 22:22 35.39360 -104.85045 39871 ft 407 kts 274°
2026-05-03 22:22 35.39615 -104.91953 39873 ft 407 kts 274°
2026-05-03 22:23 35.39868 -104.98892 39896 ft 407 kts 273°
2026-05-03 22:23 35.40116 -105.05821 39969 ft 406 kts 274°
2026-05-03 22:24 35.40360 -105.12692 39985 ft 406 kts 273°
2026-05-03 22:24 35.40597 -105.19618 39971 ft 407 kts 273°
2026-05-03 22:25 35.40831 -105.26553 39986 ft 406 kts 273°
2026-05-03 22:25 35.41062 -105.33474 39972 ft 406 kts 273°
2026-05-03 22:25 35.41174 -105.36940 40085 ft 405 kts 273°
2026-05-03 22:26 35.41285 -105.40384 40173 ft 404 kts 273°
2026-05-03 22:26 35.41396 -105.43829 40279 ft 404 kts 273°
2026-05-03 22:26 35.41505 -105.47265 40396 ft 403 kts 273°
2026-05-03 22:26 35.41614 -105.50663 40529 ft 402 kts 273°
2026-05-03 22:27 35.41722 -105.54087 40657 ft 402 kts 273°
2026-05-03 22:27 35.41829 -105.57505 40780 ft 401 kts 273°
2026-05-03 22:27 35.41934 -105.60921 40908 ft 400 kts 273°
2026-05-03 22:28 35.42144 -105.67767 40976 ft 403 kts 273°
2026-05-03 22:28 35.42351 -105.74655 40979 ft 406 kts 272°
2026-05-03 22:29 35.42555 -105.81569 40982 ft 406 kts 272°
2026-05-03 22:29 35.42755 -105.88493 40979 ft 406 kts 272°
2026-05-03 22:30 35.42951 -105.95412 41050 ft 406 kts 272°
2026-05-03 22:30 35.43142 -106.02302 41066 ft 406 kts 272°
2026-05-03 22:31 35.43330 -106.09221 41066 ft 406 kts 272°
2026-05-03 22:31 35.43515 -106.16151 41064 ft 406 kts 272°
2026-05-03 22:32 35.43695 -106.23088 41051 ft 407 kts 272°
2026-05-03 22:32 35.43871 -106.30011 41018 ft 406 kts 272°
2026-05-03 22:33 35.44044 -106.36942 40991 ft 406 kts 272°
2026-05-03 22:33 35.44213 -106.43870 40967 ft 406 kts 272°
2026-05-03 22:34 35.44377 -106.50790 40959 ft 406 kts 272°
2026-05-03 22:34 35.44537 -106.57708 40963 ft 406 kts 272°
2026-05-03 22:35 35.44691 -106.64520 40966 ft 406 kts 272°
2026-05-03 22:35 35.44844 -106.71437 40943 ft 406 kts 272°
2026-05-03 22:36 35.44993 -106.78376 40968 ft 407 kts 271°
2026-05-03 22:36 35.45138 -106.85335 40987 ft 408 kts 272°
2026-05-03 22:37 35.45280 -106.92290 40975 ft 408 kts 271°
2026-05-03 22:37 35.45416 -106.99206 40969 ft 408 kts 271°
2026-05-03 22:38 35.45549 -107.06174 40964 ft 407 kts 271°
2026-05-03 22:38 35.45679 -107.13172 40974 ft 410 kts 271°
2026-05-03 22:39 35.45805 -107.20127 40953 ft 411 kts 271°
2026-05-03 22:39 35.45928 -107.27148 40957 ft 411 kts 271°
2026-05-03 22:40 35.46046 -107.34173 40935 ft 411 kts 271°
2026-05-03 22:40 35.46161 -107.41198 40946 ft 411 kts 271°
2026-05-03 22:41 35.46271 -107.48196 40934 ft 410 kts 271°
2026-05-03 22:41 35.46377 -107.55181 40932 ft 410 kts 271°
2026-05-03 22:42 35.46476 -107.62118 40915 ft 409 kts 271°
2026-05-03 22:42 35.46575 -107.69110 40917 ft 410 kts 271°
2026-05-03 22:43 35.46669 -107.76105 40913 ft 410 kts 271°
2026-05-03 22:43 35.46759 -107.83056 40945 ft 408 kts 271°
2026-05-03 22:44 35.46845 -107.90015 40940 ft 408 kts 271°
2026-05-03 22:44 35.46925 -107.96977 40937 ft 408 kts 271°
2026-05-03 22:45 35.47002 -108.03937 40923 ft 408 kts 271°
2026-05-03 22:45 35.47075 -108.10872 40902 ft 408 kts 271°
2026-05-03 22:46 35.47145 -108.17824 40878 ft 407 kts 270°
2026-05-03 22:46 35.47210 -108.24778 40879 ft 407 kts 270°
2026-05-03 22:47 35.47273 -108.31736 40879 ft 408 kts 270°
2026-05-03 22:47 35.47330 -108.38698 40878 ft 407 kts 270°
2026-05-03 22:48 35.47383 -108.45655 40860 ft 407 kts 270°
2026-05-03 22:48 35.47431 -108.52542 40862 ft 406 kts 270°
2026-05-03 22:49 35.47476 -108.59469 40848 ft 406 kts 270°
2026-05-03 22:49 35.47517 -108.66416 40845 ft 406 kts 270°
2026-05-03 22:50 35.47555 -108.73350 40832 ft 406 kts 270°
2026-05-03 22:50 35.47572 -108.76813 41119 ft 406 kts 270°
2026-05-03 22:50 35.47589 -108.80270 41116 ft 406 kts 270°
2026-05-03 22:51 35.47619 -108.87181 41115 ft 405 kts 270°
2026-05-03 22:51 35.47649 -108.94050 41094 ft 405 kts 270°
2026-05-03 22:52 35.47681 -109.00961 41039 ft 404 kts 270°
2026-05-03 22:52 35.47710 -109.07863 41045 ft 404 kts 270°
2026-05-03 22:53 35.47735 -109.14766 41044 ft 404 kts 270°
2026-05-03 22:53 35.47756 -109.21666 41029 ft 404 kts 270°
2026-05-03 22:54 35.47774 -109.28520 41004 ft 403 kts 270°
2026-05-03 22:54 35.47787 -109.35402 40974 ft 403 kts 269°
2026-05-03 22:55 35.47797 -109.42300 40945 ft 403 kts 269°
2026-05-03 22:55 35.47803 -109.49183 40927 ft 403 kts 269°
2026-05-03 22:56 35.47805 -109.56014 40923 ft 403 kts 269°
2026-05-03 22:56 35.47803 -109.62910 40922 ft 403 kts 269°
2026-05-03 22:57 35.47797 -109.69797 40919 ft 403 kts 269°
2026-05-03 22:57 35.47787 -109.76689 40924 ft 403 kts 269°
2026-05-03 22:58 35.47773 -109.83575 40915 ft 404 kts 269°
2026-05-03 22:58 35.47755 -109.90480 40920 ft 405 kts 269°
2026-05-03 22:59 35.47734 -109.97321 40912 ft 405 kts 269°
2026-05-03 22:59 35.47708 -110.04240 40907 ft 405 kts 269°
2026-05-03 23:00 35.47679 -110.11124 40904 ft 405 kts 269°
2026-05-03 23:00 35.47645 -110.18059 40906 ft 407 kts 269°
2026-05-03 23:01 35.47607 -110.25027 40880 ft 408 kts 269°
2026-05-03 23:01 35.47566 -110.32003 40890 ft 409 kts 269°
2026-05-03 23:02 35.47520 -110.38966 40878 ft 407 kts 269°
2026-05-03 23:02 35.47470 -110.45909 40878 ft 406 kts 269°
2026-05-03 23:03 35.47417 -110.52852 40850 ft 408 kts 269°
2026-05-03 23:03 35.47359 -110.59825 40849 ft 409 kts 269°
2026-05-03 23:04 35.47298 -110.66765 40841 ft 409 kts 269°
2026-05-03 23:04 35.47232 -110.73754 40842 ft 409 kts 268°
2026-05-03 23:05 35.47174 -110.79558 40817 ft 409 kts 268°
2026-05-03 23:05 35.47101 -110.86556 40819 ft 410 kts 268°
2026-05-03 23:06 35.47023 -110.93561 40810 ft 411 kts 268°
2026-05-03 23:06 35.46941 -111.00576 40821 ft 411 kts 268°
2026-05-03 23:07 35.46856 -111.07578 40807 ft 411 kts 268°
2026-05-03 23:07 35.46766 -111.14590 40840 ft 411 kts 268°
2026-05-03 23:08 35.46673 -111.21570 40824 ft 411 kts 268°
2026-05-03 23:08 35.46575 -111.28596 40858 ft 412 kts 268°
2026-05-03 23:09 35.46472 -111.35621 40867 ft 412 kts 268°
2026-05-03 23:09 35.46366 -111.42660 40875 ft 412 kts 268°
2026-05-03 23:10 35.46256 -111.49688 40881 ft 412 kts 268°
2026-05-03 23:10 35.46141 -111.56712 40892 ft 411 kts 268°
2026-05-03 23:11 35.46022 -111.63730 40890 ft 411 kts 268°
2026-05-03 23:11 35.45900 -111.70750 40899 ft 412 kts 268°
2026-05-03 23:12 35.45774 -111.77772 40903 ft 411 kts 268°
2026-05-03 23:12 35.45672 -111.84776 40916 ft 411 kts 270°
2026-05-03 23:13 35.46300 -111.91717 40919 ft 413 kts 276°
2026-05-03 23:13 35.47188 -111.98688 40912 ft 414 kts 276°
2026-05-03 23:14 35.48068 -112.05669 40914 ft 414 kts 276°
2026-05-03 23:14 35.48942 -112.12649 40908 ft 413 kts 276°
2026-05-03 23:15 35.49813 -112.19640 40894 ft 415 kts 276°
2026-05-03 23:15 35.50680 -112.26644 40889 ft 415 kts 276°
2026-05-03 23:16 35.51544 -112.33656 40876 ft 415 kts 276°
2026-05-03 23:16 35.52400 -112.40637 40875 ft 415 kts 276°
2026-05-03 23:17 35.53256 -112.47653 40863 ft 415 kts 276°
2026-05-03 23:17 35.54109 -112.54679 40881 ft 416 kts 275°
2026-05-03 23:18 35.54959 -112.61725 40855 ft 415 kts 275°
2026-05-03 23:18 35.55794 -112.68670 40855 ft 415 kts 275°
2026-05-03 23:19 35.56631 -112.75667 40707 ft 414 kts 275°
2026-05-03 23:19 35.57046 -112.79142 40289 ft 408 kts 275°
2026-05-03 23:19 35.57457 -112.82601 39585 ft 407 kts 275°
2026-05-03 23:19 35.57863 -112.86037 38935 ft 406 kts 275°
2026-05-03 23:20 35.58269 -112.89466 38281 ft 404 kts 275°
2026-05-03 23:20 35.58676 -112.92886 37444 ft 404 kts 275°
2026-05-03 23:20 35.59077 -112.96307 36553 ft 406 kts 275°
2026-05-03 23:20 35.59481 -112.99738 35685 ft 408 kts 275°
2026-05-03 23:21 35.59886 -113.03170 34863 ft 410 kts 275°
2026-05-03 23:21 35.60293 -113.06652 33962 ft 413 kts 275°
2026-05-03 23:21 35.60704 -113.10177 32936 ft 417 kts 275°
2026-05-03 23:21 35.61115 -113.13714 31868 ft 420 kts 275°
2026-05-03 23:22 35.61944 -113.20895 29794 ft 427 kts 275°
2026-05-03 23:22 35.62360 -113.24514 28591 ft 430 kts 274°
2026-05-03 23:22 35.62774 -113.28128 27517 ft 433 kts 274°
2026-05-03 23:23 35.63193 -113.31786 26697 ft 430 kts 274°
2026-05-03 23:23 35.63606 -113.35402 26088 ft 424 kts 274°
2026-05-03 23:23 35.64013 -113.38965 25489 ft 418 kts 274°
2026-05-03 23:23 35.64413 -113.42472 24915 ft 412 kts 274°
2026-05-03 23:24 35.64807 -113.45935 24363 ft 406 kts 272°
2026-05-03 23:24 35.65191 -113.49358 23782 ft 402 kts 273°
2026-05-03 23:24 35.65638 -113.52754 23374 ft 406 kts 276°
2026-05-03 23:24 35.66222 -113.56203 22912 ft 416 kts 277°
2026-05-03 23:25 35.66825 -113.59698 22463 ft 418 kts 277°
2026-05-03 23:25 35.67419 -113.63197 22044 ft 417 kts 277°
2026-05-03 23:25 35.68003 -113.66687 21615 ft 416 kts 277°
2026-05-03 23:25 35.68578 -113.70176 21188 ft 416 kts 277°
2026-05-03 23:26 35.69151 -113.73669 20772 ft 415 kts 277°
2026-05-03 23:26 35.69711 -113.77104 20351 ft 414 kts 277°
2026-05-03 23:26 35.70277 -113.80582 19921 ft 413 kts 277°
2026-05-03 23:26 35.70839 -113.84048 19505 ft 412 kts 277°
2026-05-03 23:27 35.71399 -113.87512 19090 ft 412 kts 277°
2026-05-03 23:27 35.71953 -113.90944 18775 ft 412 kts 277°
2026-05-03 23:27 35.72512 -113.94413 18448 ft 414 kts 277°
2026-05-03 23:27 35.73074 -113.97906 18039 ft 416 kts 277°
2026-05-03 23:28 35.73636 -114.01402 17557 ft 416 kts 277°
2026-05-03 23:28 35.74195 -114.04896 17129 ft 415 kts 277°
2026-05-03 23:28 35.74750 -114.08346 16868 ft 403 kts 277°
2026-05-03 23:28 35.75284 -114.11647 16585 ft 380 kts 277°
2026-05-03 23:29 35.75835 -114.14723 16182 ft 357 kts 282°
2026-05-03 23:29 35.76805 -114.17453 15798 ft 340 kts 293°
2026-05-03 23:29 35.77909 -114.19955 15357 ft 325 kts 294°
2026-05-03 23:29 35.78998 -114.22386 14983 ft 323 kts 291°
2026-05-03 23:30 35.80051 -114.24771 14653 ft 319 kts 292°
2026-05-03 23:30 35.81108 -114.27162 14328 ft 318 kts 291°
2026-05-03 23:30 35.82167 -114.29553 14021 ft 318 kts 292°
2026-05-03 23:30 35.83218 -114.31943 13688 ft 317 kts 294°
2026-05-03 23:31 35.84396 -114.34259 13368 ft 319 kts 301°
2026-05-03 23:31 35.85736 -114.36442 13033 ft 319 kts 301°
2026-05-03 23:31 35.87094 -114.38605 12734 ft 318 kts 301°
2026-05-03 23:31 35.88437 -114.40747 12465 ft 312 kts 302°
2026-05-03 23:32 35.89756 -114.42848 12125 ft 308 kts 302°
2026-05-03 23:32 35.91058 -114.44940 11783 ft 306 kts 302°
2026-05-03 23:32 35.92362 -114.47027 11521 ft 307 kts 302°
2026-05-03 23:32 35.93661 -114.49109 11220 ft 306 kts 302°
2026-05-03 23:33 35.94945 -114.51171 10931 ft 306 kts 301°
2026-05-03 23:33 35.96232 -114.53235 10743 ft 297 kts 301°
2026-05-03 23:33 35.97459 -114.55221 10562 ft 284 kts 302°
2026-05-03 23:33 35.98623 -114.57102 10312 ft 267 kts 300°
2026-05-03 23:34 35.99725 -114.58888 10065 ft 257 kts 300°
2026-05-03 23:34 36.00801 -114.60645 9819 ft 255 kts 300°
2026-05-03 23:34 36.01877 -114.62404 9555 ft 257 kts 301°
2026-05-03 23:34 36.02951 -114.64156 9272 ft 257 kts 301°
2026-05-03 23:35 36.03980 -114.65945 9005 ft 252 kts 297°
2026-05-03 23:35 36.04904 -114.67778 8759 ft 251 kts 294°
2026-05-03 23:35 36.05798 -114.69580 8511 ft 251 kts 293°
2026-05-03 23:35 36.06698 -114.71415 8261 ft 248 kts 291°
2026-05-03 23:36 36.07290 -114.73361 8000 ft 237 kts 270°
2026-05-03 23:36 36.07391 -114.75356 7696 ft 231 kts 262°
2026-05-03 23:36 36.07369 -114.77330 7394 ft 229 kts 261°
2026-05-03 23:36 36.07356 -114.79303 7083 ft 229 kts 262°
2026-05-03 23:37 36.07364 -114.81274 6798 ft 228 kts 263°
2026-05-03 23:37 36.07366 -114.83219 6509 ft 225 kts 263°
2026-05-03 23:37 36.07362 -114.85144 6212 ft 223 kts 263°
2026-05-03 23:37 36.07365 -114.87010 5908 ft 211 kts 263°
2026-05-03 23:38 36.07367 -114.88776 5639 ft 200 kts 263°
2026-05-03 23:38 36.07394 -114.90461 5487 ft 192 kts 262°
2026-05-03 23:38 36.07416 -114.92094 5228 ft 187 kts 262°
2026-05-03 23:38 36.07374 -114.93685 4985 ft 184 kts 257°
2026-05-03 23:39 36.07337 -114.95262 4757 ft 183 kts 259°
2026-05-03 23:39 36.07343 -114.96832 4532 ft 182 kts 263°
2026-05-03 23:39 36.07399 -114.98377 4284 ft 181 kts 264°
2026-05-03 23:39 36.07453 -114.99915 4025 ft 176 kts 262°
2026-05-03 23:40 36.07438 -115.01386 3767 ft 168 kts 258°
2026-05-03 23:40 36.07349 -115.02771 3558 ft 156 kts 258°
2026-05-03 23:40 36.07296 -115.04060 3413 ft 146 kts 262°
2026-05-03 23:40 36.07359 -115.05288 3237 ft 142 kts 264°
2026-05-03 23:41 36.07387 -115.06505 3081 ft 142 kts 261°
2026-05-03 23:41 36.07363 -115.07729 2904 ft 142 kts 259°
2026-05-03 23:41 36.07350 -115.08954 2711 ft 144 kts 262°
2026-05-03 23:41 36.07368 -115.10164 2483 ft 141 kts 262°
2026-05-03 23:42 36.07378 -115.11386 2303 ft 142 kts 266°
2026-05-03 23:42 36.07377 -115.12607 2120 ft 142 kts 262°
2026-05-03 23:42 36.07373 -115.13788 2085 ft 127 kts 267°
2026-05-03 23:42 36.07367 -115.14653 2098 ft 61 kts 270°
2026-05-03 23:43 36.07413 -115.14925 2103 ft 24 kts 301°
2026-05-03 23:43 36.07486 -115.15076 2106 ft 3 kts 304°
2026-05-03 23:43 36.07486 -115.15077 2106 ft 0 kts 304°
2026-05-03 23:43 36.07491 -115.15085 2106 ft 2 kts 308°
2026-05-03 23:44 36.07504 -115.15102 2107 ft 4 kts 317°
2026-05-03 23:44 36.07548 -115.15139 2111 ft 13 kts 331°
2026-05-03 23:44 36.07642 -115.15200 2116 ft 19 kts 332°
2026-05-03 23:44 36.07770 -115.15271 2110 ft 22 kts 336°
2026-05-03 23:45 36.07865 -115.15277 2106 ft 12 kts 53°
2026-05-03 23:45 36.07878 -115.15161 2105 ft 15 kts 90°
2026-05-03 23:45 36.07873 -115.15019 2105 ft 18 kts 95°
2026-05-03 23:45 36.07863 -115.14858 2104 ft 20 kts 95°
2026-05-03 23:46 36.07850 -115.14674 2103 ft 23 kts 94°
2026-05-03 23:46 36.07836 -115.14472 2102 ft 25 kts 95°
2026-05-03 23:46 36.07826 -115.14256 2102 ft 22 kts 89°
2026-05-03 23:46 36.07835 -115.14175 2101 ft 7 kts 56°
2026-05-03 23:47 36.07888 -115.14157 2101 ft 9 kts
2026-05-03 23:47 36.07958 -115.14153 2101 ft 7 kts 19°
2026-05-03 23:47 36.07960 -115.14123 2100 ft 6 kts 110°
2026-05-03 23:47 36.07928 -115.14067 2100 ft 10 kts 124°
2026-05-03 23:48 36.07909 -115.13979 2099 ft 12 kts 91°
2026-05-03 23:48 36.07941 -115.13881 2099 ft 11 kts 46°
2026-05-03 23:48 36.07978 -115.13884 2099 ft 5 kts 328°
2026-05-03 23:48 36.07997 -115.13906 2099 ft 5 kts 315°
2026-05-03 23:49 36.08013 -115.13926 2099 ft 0 kts 315°
2026-05-03 23:49 36.08014 -115.13927 2099 ft 0 kts 315°